Location: St. Louis
(38.6270°N, 90.1994°W)
Time: 09:34:45
(UTC-06:00)

Vanguard 2 Rocket - Pass Details

Date: 02 December 2021
Orbit: 553 x 3325 km, 32.9° (Epoch: 23 January)

Event Time Altitude Azimuth Distance (km) Brightness Sun altitude
Rises 01:20:20 0° 276° (W) 5,820 - -64.5°
Reaches altitude 10° 01:24:39 10° 264° (W) 5,194 - -63.8°
Maximum altitude 01:36:56 27° 215° (SW) 4,689 - -61.8°
Exits shadow 01:50:41 12° 170° (S) 6,103 10.9 -59.4°
Drops below altitude 10° 01:51:51 10° 168° (SSE) 6,272 11.0 -59.2°
Sets 01:57:58 0° 157° (SSE) 7,207 11.5 -58.1°
